Skip Page Navigation
NASA JPL Caltech
NASA Logo - Jet Propulsion Laboratory + View the NASA Portal
+ Center for Near-Earth Object Studies
JPL Home Earth Solar System Stars & Galaxies Technology
JPL Solar System Dynamics
BODIES ORBITS EPHEMERIDES TOOLS PHYSICAL DATA DISCOVERY FAQ SITE MAP
IMPORTANT: The SSD Announcement email list is now available. Major changes are coming in the near future, including possible hostname and/or URL changes. To be notified of such changes, subscribe to this email list.

Please visit this page for more details.


JPL Small-Body Database Browser
Search: [ help ]  
160671 (2000 AY237)
Classification: Main-belt Asteroid          SPK-ID: 2160671
Ephemeris | Orbit Diagram | Orbital Elements | Mission Design | Physical Parameters | Discovery Circumstances | Close-Approach Data ]

[ show orbit diagram ]
Orbital Elements at Epoch 2458600.5 (2019-Apr-27.0) TDB
Reference: JPL 8 (heliocentric ecliptic J2000)
 Element Value Uncertainty (1-sigma)   Units 
e .2909935033808469 7.885e-08  
a 2.569250212676503 2.3157e-08 au
q 1.821615092227782 2.1451e-07 au
i 4.679707149254525 6.4264e-06 deg
node 266.8429038605047 9.0291e-05 deg
peri 109.5203188609758 9.3488e-05 deg
M 283.0875885200364 3.138e-05 deg
tp 2458921.867501316926
(2020-Mar-13.36750132)
0.00013516 TDB
period 1504.208465810906
4.12
2.0336e-05
5.568e-08
d
yr
n .2393285293776931 3.2357e-09 deg/d
Q 3.316885333125224 2.9896e-08 au
  Orbit Determination Parameters
   # obs. used (total)      335  
   data-arc span      7730 days (21.16 yr)  
   first obs. used      1995-12-24  
   last obs. used      2017-02-21  
   planetary ephem.      DE431  
   SB-pert. ephem.      SB431-N16  
   condition code      0  
   norm. resid. RMS      .55174  
   source      ORB  
   producer      Otto Matic  
   solution date      2017-May-15 16:59:34  

Additional Information
 Earth MOID = .829048 au 
 Jupiter MOID = 2.18299 au 
 T_jup = 3.365 
[ show covariance matrix ]

Ephemeris | Orbit Diagram | Orbital Elements | Mission Design | Physical Parameters | Discovery Circumstances | Close-Approach Data ]

Physical Parameter Table
Parameter Symbol Value Units Sigma Reference Notes
absolute magnitude H 16.5   n/a MPO345274  

160671 (2000 AY237)          Discovered 2000-Jan-06 by LINEAR at Socorro
Reference: 20070828/Numbers.arcLast Updated: 2007-08-30

[ show close-approach data ]
Alternate Designations
 2000 AY237 = 1995 YC24 = 1999 WT20 
Ephemeris | Orbit Diagram | Orbital Elements | Mission Design | Physical Parameters | Discovery Circumstances | Close-Approach Data ]
ABOUT SSD CREDITS/AWARDS PRIVACY/COPYRIGHT GLOSSARY LINKS
FirstGov
(server date/time)  
NASA Home Page
Site Manager:   Ryan S. Park
Webmaster  Alan B. Chamberlin